EW8004 Weather Reports


Display with metric or nautical units.
time (UTC)temp
F
wind
direction
speed
MPH
gust
MPH
rain 1hr
in
rain 24hr
in
rain mn
in
humidity
%
barometer
mb
20260906094535 70 74 0.0 0.0 0.00 0.00 0.00 95 1010.9
20260906093035 70 74 0.0 0.0 0.00 0.00 0.00 95 1010.9
20260906091534 70 74 0.0 0.0 0.00 0.00 0.00 96 1010.9
20260906090030 71 74 0.0 0.0 0.00 0.00 0.00 95 1010.9
20260906084531 71 74 0.0 0.0 0.00 0.00 0.00 95 1010.8
20260906083027 71 74 0.0 0.0 0.00 0.00 0.00 95 1010.6
20260906081538 71 74 0.0 0.0 0.00 0.00 0.00 95 1010.6
20260906080025 71 74 0.0 0.0 0.00 0.00 0.00 95 1010.7
20260906074524 71 74 0.0 0.0 0.00 0.00 0.00 95 1010.5
20260906073024 71 74 0.0 0.0 0.00 0.00 0.00 95 1010.3
20260906071521 72 74 0.0 0.0 0.00 0.00 0.00 95 1010.3
20260906070019 72 74 0.0 0.0 0.00 0.00 0.00 95 1010.5
20260906064516 72 74 0.0 0.0 0.00 0.00 0.00 95 1010.8
20260906063015 72 74 0.0 0.0 0.00 0.00 0.00 95 1011.2
20260906061513 72 74 0.0 0.0 0.00 0.00 0.00 95 1011.2
20260906060021 72 74 0.0 0.0 0.00 0.00 0.00 95 1011.1
20260906054511 72 74 0.0 0.0 0.00 0.00 0.00 94 1011.0
20260906053020 73 74 0.0 0.0 0.00 0.00 0.00 95 1011.0
20260906051511 73 74 0.0 0.0 0.00 0.00 0.00 94 1011.1
20260906050025 73 74 0.0 0.0 0.00 0.00 0.00 94 1011.2
20260906044507 73 74 0.0 0.0 0.00 0.00 0.00 94 1011.4
20260906043006 73 74 0.0 0.0 0.00 0.00 0.00 94 1011.3
20260906041505 73 74 0.0 0.0 0.00 0.00 0.00 94 1011.2
20260906040002 74 74 0.0 0.0 0.00 0.00 0.00 94 1011.5
20260906034502 74 74 0.0 0.0 0.00 0.00 0.00 94 1011.5
20260906033005 74 74 0.0 0.0 0.00 0.00 0.00 94 1011.5
20260906031605 75 74 0.0 0.0 0.00 0.00 0.00 94 1011.7
20260906030100 75 74 0.0 0.0 0.00 0.00 0.00 93 1011.6
20260906024601 75 74 0.0 0.0 0.00 0.00 0.00 93 1011.4
20260906023100 76 74 0.0 0.0 0.00 0.00 0.00 93 1011.4
20260906021606 76 74 0.0 0.0 0.00 0.00 0.00 93 1011.1
20260906020103 76 74 0.0 0.0 0.00 0.00 0.00 92 1011.1
20260906014558 77 74 0.0 0.0 0.00 0.00 0.00 92 1010.8
20260906013057 77 74 0.0 0.0 0.00 0.00 0.00 92 1010.6
20260906011557 78 74 0.0 0.0 0.00 0.00 0.00 91 1010.6
20260906010056 79 74 0.0 0.0 0.00 0.00 0.00 90 1010.4
20260906004557 79 74 0.0 0.0 0.00 0.00 0.00 90 1010.4
20260906003056 80 74 0.0 0.0 0.00 0.00 0.00 90 1010.3
20260906001555 81 74 0.0 0.0 0.00 0.00 0.00 90 1010.1
20260906000055 82 74 0.0 0.0 0.00 0.00 0.00 89 1010.1
20260905234556 82 74 0.0 0.0 0.00 0.00 0.00 88 1010.2
20260905233054 83 74 0.0 0.0 0.00 0.00 0.00 88 1010.2
20260905231553 83 74 0.0 0.0 0.00 0.00 0.00 87 1010.1
20260905230055 83 74 0.0 0.0 0.00 0.00 0.00 85 1010.0
20260905224603 84 74 0.0 0.0 0.00 0.00 0.00 84 1010.0
20260905223052 84 74 0.0 0.0 0.00 0.00 0.00 84 1010.0
20260905221558 85 74 0.0 0.0 0.00 0.00 0.00 82 1009.9
20260905220103 85 74 0.0 0.0 0.00 0.00 0.00 81 1010.0
20260905214549 85 74 0.0 0.0 0.00 0.00 0.00 80 1009.9
20260905213051 85 74 0.0 0.0 0.00 0.00 0.00 81 1010.1
20260905211603 85 74 0.0 0.0 0.00 0.00 0.00 81 1010.1
20260905210054 86 74 0.0 0.0 0.00 0.00 0.00 80 1010.2
20260905204554 86 74 0.0 0.0 0.00 0.00 0.00 82 1010.2
20260905203110 86 74 0.0 0.0 0.00 0.00 0.00 81 1010.2
20260905201546 86 74 0.0 0.0 0.00 0.00 0.00 80 1010.4
20260905200053 86 64 0.0 0.0 0.00 0.00 0.00 80 1010.6
20260905194540 87 64 0.0 0.0 0.00 0.00 0.00 80 1010.9
20260905193037 87 64 0.0 0.0 0.00 0.00 0.00 78 1011.2
20260905191535 87 64 0.0 0.0 0.00 0.00 0.00 78 1011.3
20260905190034 87 64 0.0 0.0 0.00 0.00 0.00 77 1011.5
20260905184533 86 80 0.0 0.0 0.00 0.00 0.00 81 1011.7
20260905183026 85 327 0.0 0.0 0.00 0.00 0.00 82 1012.0
20260905181527 85 317 0.0 0.0 0.00 0.00 0.00 82 1012.3
20260905180021 84 317 0.0 0.0 0.00 0.00 0.00 84 1012.7
20260905174526 84 51 0.0 0.0 0.00 0.00 0.00 84 1012.8
20260905173025 83 69 0.0 0.0 0.00 0.00 0.00 87 1013.1
20260905171525 81 84 0.0 0.0 0.00 0.00 0.00 89 1013.1
20260905170016 81 84 0.0 0.0 0.00 0.00 0.00 89 1013.3
20260905164516 81 84 0.0 0.0 0.00 0.00 0.00 90 1013.4
20260905163016 81 84 0.0 0.0 0.00 0.00 0.00 89 1013.4
20260905161514 82 72 0.0 0.0 0.00 0.00 0.00 89 1013.5
20260905160014 83 34 0.0 0.0 0.00 0.00 0.00 87 1013.3
20260905154512 83 34 0.0 0.0 0.00 0.00 0.00 88 1013.2
20260905153018 82 34 0.0 0.0 0.00 0.00 0.00 89 1013.0
20260905151506 81 34 0.0 0.0 0.00 0.00 0.00 93 1013.0
20260905150001 79 34 0.0 0.0 0.00 0.00 0.00 93 1013.2
20260905144601 78 34 0.0 0.0 0.00 0.00 0.00 94 1013.3
20260905143056 77 34 0.0 0.0 0.00 0.00 0.00 95 1013.5
20260905141551 76 34 0.0 0.0 0.00 0.00 0.00 95 1013.6
20260905140048 74 34 0.0 0.0 0.00 0.00 0.00 95 1013.5
20260905134548 74 34 0.0 0.0 0.00 0.00 0.00 96 1013.6
20260905133046 73 34 0.0 0.0 0.00 0.00 0.00 96 1013.7
20260905131546 73 34 0.0 0.0 0.00 0.00 0.00 96 1013.9
20260905130045 72 34 0.0 0.0 0.00 0.00 0.00 96 1014.1
20260905124545 72 34 0.0 0.0 0.00 0.00 0.00 96 1014.1
20260905123044 71 34 0.0 0.0 0.00 0.00 0.00 96 1014.0
20260905121541 70 34 0.0 0.0 0.00 0.00 0.00 96 1013.9
20260905120038 70 34 0.0 0.0 0.00 0.00 0.00 96 1013.9
20260905114535 70 34 0.0 0.0 0.00 0.00 0.00 96 1013.6
20260905113035 70 34 0.0 0.0 0.00 0.00 0.00 96 1013.3
20260905111533 70 34 0.0 0.0 0.00 0.00 0.00 95 1013.1
20260905110033 70 34 0.0 0.0 0.00 0.00 0.00 95 1013.1
20260905104531 70 34 0.0 0.0 0.00 0.00 0.00 95 1012.9
20260905103037 70 34 0.0 0.0 0.00 0.00 0.00 95 1012.7
20260905101530 70 34 0.0 0.0 0.00 0.00 0.00 95 1012.7
20260905100029 71 34 0.0 0.0 0.00 0.00 0.00 95 1012.8